Weather History for Greenville/Spartanburg, SC

Change the Weather History Date:

Sunday, February 26, 2012

  Actual Average Record
Temperature  
Mean Temperature 43 °F 48 °F  
Max Temperature 56 °F 59 °F 80 °F (1996)
Min Temperature 30 °F 37 °F 12 °F (1974)
Degree Days  
Heating Degree Days 22 17  
Month to date heating degree days 451 506  
Since 1 July heating degree days 2090 2416  
Cooling Degree Days 0 0  
Month to date cooling degree days 0 0  
Year to date cooling degree days 0 0  
Moisture  
Dew Point 21 °F    
Average Humidity 44    
Maximum Humidity 63    
Minimum Humidity 24    
Precipitation  
Precipitation 0.00 in 0.14 in 2.50 in (1890)
Month to date precipitation 1.11 3.67  
Year to date precipitation 5.03 7.49  
Snow  
Snow 0.00 in 0.00 in 8.00 in (2004)
Month to date snowfall 0.0 0.9  
Since 1 July snowfall 0.0 3.7  
Snow Depth 0.00 in    
Sea Level Pressure  
Sea Level Pressure 30.40 in    
Wind  
Wind Speed 4 mph (SE)    
Max Wind Speed 14 mph    
Max Gust Speed 20 mph    
Visibility 10 miles    
Events      
T = Trace of Precipitation, MM = Missing Value Source: NWS Daily Summary

Daily Weather History Graph

Daily Weather History Graph

Search for Another Location

Airport:

Trip Planner

Search our weather history database for the weather conditions in past years. The results will help you decide how hot, cold, wet, or windy it might be!

Date:

Astronomy

Feb. 26, 2012 Rise Set
Actual Time 7:02 AM EST 6:21 PM EST
Civil Twilight 6:37 AM EST 6:47 PM EST
Nautical Twilight 6:07 AM EST 7:16 PM EST
Astronomical Twilight 5:38 AM EST 7:45 PM EST
Moon 9:10 AM EST (2/26) 11:03 PM EST (2/26)
Length of Visible Light 12h 09m
Length of Day
11h 18m
Waxing Crescent, 20% of the Moon is Illuminated
Feb 26
Waxing Crescent
Feb 29
First Quarter
Mar 8
Full
Mar 14
Last Quarter
Mar 22
New

Hourly Weather History & Observations

Time (EST) Temp. Windchill Dew Point Humidity Pressure Visibility Wind Dir Wind Speed Gust Speed Precip Events Conditions
12:53 AM 37.0 °F 31.6 °F 18.0 °F 46% 30.31 in 10.0 mi East 6.9 mph - N/A   Clear
1:53 AM 35.6 °F 32.8 °F 17.6 °F 48% 30.33 in 10.0 mi ESE 3.5 mph - N/A   Clear
2:53 AM 33.1 °F - 19.9 °F 59% 30.35 in 10.0 mi Calm Calm - N/A   Clear
3:53 AM 32.0 °F 25.6 °F 19.0 °F 59% 30.36 in 10.0 mi ESE 6.9 mph - N/A   Clear
4:53 AM 34.0 °F - 19.0 °F 54% 30.38 in 10.0 mi Calm Calm - N/A   Clear
5:53 AM 30.9 °F - 19.0 °F 61% 30.41 in 10.0 mi Calm Calm - N/A   Clear
6:53 AM 33.1 °F - 19.0 °F 56% 30.42 in 10.0 mi Calm Calm - N/A   Clear
7:53 AM 33.8 °F - 21.2 °F 60% 30.43 in 10.0 mi Calm Calm - N/A   Clear
8:53 AM 37.0 °F 34.5 °F 21.0 °F 52% 30.47 in 10.0 mi Variable 3.5 mph - N/A   Clear
9:53 AM 37.9 °F 34.4 °F 19.9 °F 48% 30.48 in 10.0 mi SE 4.6 mph - N/A   Clear
10:53 AM 41.0 °F 38.0 °F 21.0 °F 45% 30.48 in 10.0 mi SSE 4.6 mph - N/A   Clear
11:53 AM 46.9 °F - 23.0 °F 39% 30.46 in 10.0 mi Variable 6.9 mph - N/A   Clear
12:53 PM 48.0 °F - 19.9 °F 33% 30.43 in 10.0 mi Variable 3.5 mph - N/A   Clear
1:53 PM 52.0 °F - 19.9 °F 28% 30.40 in 10.0 mi SSW 10.4 mph - N/A   Clear
2:53 PM 54.0 °F - 21.0 °F 28% 30.38 in 10.0 mi SSW 12.7 mph 16.1 mph N/A   Clear
3:53 PM 55.0 °F - 19.0 °F 24% 30.37 in 10.0 mi Variable 4.6 mph - N/A   Clear
4:53 PM 55.0 °F - 19.0 °F 24% 30.36 in 10.0 mi South 10.4 mph 17.3 mph N/A   Clear
5:53 PM 52.0 °F - 21.9 °F 31% 30.38 in 10.0 mi SSE 6.9 mph - N/A   Clear
6:53 PM 46.9 °F - 25.0 °F 42% 30.39 in 10.0 mi SE 5.8 mph - N/A   Clear
7:53 PM 44.1 °F 40.8 °F 26.1 °F 49% 30.40 in 10.0 mi SE 5.8 mph - N/A   Clear
8:53 PM 43.0 °F 40.3 °F 25.0 °F 49% 30.41 in 10.0 mi SE 4.6 mph - N/A   Clear
9:53 PM 43.0 °F 40.3 °F 24.1 °F 47% 30.41 in 10.0 mi SE 4.6 mph - N/A   Clear
10:53 PM 41.0 °F - 25.0 °F 53% 30.41 in 10.0 mi Calm Calm - N/A   Clear
11:53 PM 39.0 °F - 26.1 °F 60% 30.40 in 10.0 mi Calm Calm - N/A   Clear